Regional Weather Roundup
Issued by NWS

Home | Current Version | Previous Version | Text Only | Print | Product List | Glossary On
Versions: 1 2 3 4 5 6 7 8 9 10 11 12 13 14 15 16 17 18 19 20 21 22 23 24 25 26 27 28 29 30 31 32 33 34 35 36 37 38 39 40 41 42 43 44 45 46 47 48 49 50
000
ASUS43 KDTX 260701
RWRMI
MICHIGAN HOURLY REGIONAL WEATHER ROUNDUP
NATIONAL WEATHER SERVICE DETROIT/PONTIAC MI
300 AM EDT THU APR 26 2018

NOTE: "FAIR" INDICATES FEW OR NO CLOUDS BELOW 12,000 FEET WITH NO
SIGNIFICANT WEATHER AND/OR OBSTRUCTION TO VISIBILITY.

MIZ047>049-052>055-059>063-066>070-074>076-081>083-260800-
SOUTHEAST LOWER MICHIGAN

CITY           SKY/WX    TMP DP  RH WIND       PRES   REMARKS
ADRIAN         FAIR      41  39  93 CALM      29.94F
ALMA           FAIR      35  33  90 CALM      29.94F
ANN ARBOR      FAIR      32  32 100 CALM      29.94F
BAD AXE        FAIR      37  31  78 NW3       29.92F
CARO           FAIR      30  29  95 CALM      29.92F FOG
DETROIT CITY   FAIR      40  35  83 W5        29.93F
DETROIT        FAIR      40  35  83 SW5       29.95S HAZE
FLINT          FAIR      35  34  96 W3        29.94F
GROSSE ILE     FAIR      38  38  97 CALM      29.93F
HILLSDALE      FAIR      36  34  93 NE3       29.92F
HOWELL         FAIR      36  35  98 CALM      29.94F

CITY           SKY/WX    TMP DP  RH WIND       PRES   REMARKS
JACKSON        FAIR      37  35  92 CALM      29.94F
LAMBERTVILLE   FAIR      44  38  82 CALM      29.94F
LANSING        FAIR      37  35  92 CALM      29.95F
LAPEER         FAIR      33  32  98 W3        29.93S
MASON          FAIR      37  33  87 CALM      29.94F
MONROE         FAIR      37  36  94 NW3       29.93F FOG
MT. CLEMENS    FAIR      38  38 100 W7        29.91F WCI  33
PONTIAC        FAIR      37  35  92 W5        29.92S WCI  33
PORT HOPE        N/A     39  32  76 NW9       29.90S WCI  33
PORT HURON     FAIR      36  34  93 CALM      29.92S
TRI CITIES     FAIR      37  30  75 NW5       29.94F WCI  33
MIDLAND        FAIR      30  29  96 CALM      29.93F
TROY           FAIR      41  36  83 W3        29.95S
SAGINAW HB     FAIR      36  32  87 NW5       29.94F WCI  32
$$
MIZ043>046-050>051-056>058-064>065-071>073-077>080-260800-
SOUTHWEST LOWER MICHIGAN

CITY           SKY/WX    TMP DP  RH WIND       PRES   REMARKS
BATTLE CREEK   FAIR      37  32  82 CALM      29.94F
BENTON HARBOR  FAIR      33  30  88 CALM      29.95F
BIG RAPIDS     FAIR      31  28  86 W3        29.93F
COLDWATER      FAIR      36  32  88 CALM      29.93F
HOLLAND        FAIR      36  28  73 CALM      29.95F
GRAND RAPIDS   FAIR      40  31  70 CALM      29.94F
IONIA          FAIR      38  32  81 CALM      29.94F
KALAMAZOO      FAIR      36  31  82 CALM      29.95S
LUDINGTON      FAIR      29  29  99 CALM      29.95S
MARSHALL       FAIR      35  35  96 CALM      29.94S
MOUNT PLEASANT FAIR      35  32  90 CALM      29.93F
MUSKEGON       FAIR      33  26  75 CALM      29.96F
SOUTH HAVEN    FAIR      32  29  90 CALM      29.95F
$$
MIZ016>042-260800-
NORTHERN LOWER MICHIGAN

CITY           SKY/WX    TMP DP  RH WIND       PRES   REMARKS
ALPENA         FAIR      32  27  81 W5        29.91F WCI  27
BEAVER ISLAND  FAIR      27  25  91 CALM      29.95S
CADILLAC       FAIR      26  24  95 CALM      29.93R
CHARLEVOIX     FAIR      29  29 100 CALM      29.97F
FRANKFORT      FAIR      29  26  90 CALM      29.95F
GAYLORD        FAIR      28  25  88 CALM      29.91F
GRAYLING       FAIR      23  22  96 CALM      29.91F
HARBOR SPRINGS FAIR      29  27  92 CALM      29.94S
HOUGHTON LAKE  FAIR      31  26  82 NW5       29.92F WCI  26
MANISTEE       FAIR      26  24  92 E3        29.95S
OSCODA         FAIR      32  27  82 CALM      29.91F
PELLSTON       FAIR      26  24  92 CALM      29.94S
ROGERS CITY    FAIR      32  27  81 W5        29.92F WCI  27
TRAVERSE CITY  FAIR      30  26  85 CALM      29.94F
$$
MIZ007>008-015-260800-
EASTERN UPPER MICHIGAN

CITY           SKY/WX    TMP DP  RH WIND       PRES   REMARKS
KINROSS        FAIR      26  25  96 W6        29.91F WCI  19
MACKINAC ISLAN FAIR      32  25  74 W5        29.92S WCI  27
NEWBERRY       FAIR      25  24  96 SW5       29.92S WCI  19
MUNISING         N/A     30  24  78 S8        29.91F WCI  22
$$
MIZ004>006-011>014-085-260800-
CENTRAL UPPER MICHIGAN

CITY           SKY/WX    TMP DP  RH WIND       PRES   REMARKS
MANISTIQUE     FAIR      27  23  84 CALM      29.93F
ESCANABA       FAIR      26  24  92 W3        29.95F
MENOMINEE      FAIR      29  27  92 CALM      29.96F
SAWYER-GWINN   FAIR      29  22  74 SW3       29.91F
$$
MIZ001>003-009>011-084-260800-
WESTERN UPPER MICHIGAN

CITY           SKY/WX    TMP DP  RH WIND       PRES   REMARKS
IRON MOUNTAIN  FAIR      30  25  81 CALM      29.91F
HOUGHTON       FAIR      37  18  46 CALM      29.86F
COPPER HARBOR    N/A     36  22  56 VRB7      29.86F WCI  30
IRONWOOD       FAIR      37  22  54 CALM      29.89F
$$

ABBREVIATIONS USED IN REMARKS
   TC - TEMPERATURE IN CELSIUS
  WCI - WIND CHILL INDEX
   HX - HEAT INDEX
  VSB - VISIBILITY





USA.gov is the U.S. government's official web portal to all federal, state and local government web resources and services.